Location: *
(42.3442°N, 9.2072°E)
Time: 22:27:33
(UTC+00:00)

SL-16 R/B - Pass Details

Date: 09 April 2020
Orbit: 842 x 846 km, 71.0° (Epoch: 05 June)

Event Time Altitude Azimuth Distance (km) Brightness Sun altitude
Rises 21:30:38 0° 344° (NNW) 3,413 6.3 -33.3°
Reaches altitude 10° 21:33:35 10° 358° (N) 2,474 5.2 -33.6°
Enters shadow 21:36:53 22° 32° (NNE) 1,755 4.0 -34.0°
